Regional Weather Roundup
Issued by NWS

Home | Current Version | Previous Version | Graphics & Text | Print | Product List | Glossary On
Versions: 1 2 3 4 5 6 7 8 9 10 11 12 13 14 15 16 17 18 19 20 21 22 23 24 25 26 27 28 29 30 31 32 33 34 35 36 37 38 39 40 41 42 43 44 45 46 47 48 49 50
000
ASUS43 KOAX 301302
RWRNE

WEATHER ROUNDUP FOR NEBRASKA
NATIONAL WEATHER SERVICE OMAHA NE
800 AM CDT SAT APR 30 2016

NOTES: SATELLITE DATA IS BEING USED TO AUGMENT CLOUD COVER ABOVE
       12000 FEET.
       "FAIR" INDICATES FEW OR NO CLOUDS BELOW 12,000 FEET WITH NO
       SIGNIFICANT WEATHER AND/OR OBSTRUCTIONS TO VISIBILITY.

  * THESE STATIONS DO NOT REPORT WEATHER SUCH AS RAIN...SNOW OR FOG.

NEZ001>004-019>022-054>056-301400-
NEBRASKA PANHANDLE

CITY           SKY/WX    TMP DP  RH WIND       PRES   REMARKS
SCOTTSBLUFF    LGT SNOW  34  31  88 N17       29.93R FOG     WCI  23
ALLIANCE       SNOW      32  32 100 N18       29.90R VSB 1/2 WCI  20
CHADRON        LGT RAIN  37  35  92 N17G25    29.98R FOG     WCI  27
KIMBALL        LGT SNOW  32  32  99 N12       29.88R VSB 3/4 WCI  23
SIDNEY         LGT SNOW  32  31  96 N20       29.86S VSB 3/4 WCI  20
$$

NEZ057>060-069>072-079>082-301400-
SOUTHWEST NEBRASKA

CITY           SKY/WX    TMP DP  RH WIND       PRES   REMARKS
NORTH PLATTE   LGT SNOW  33  32  96 NW7       29.81S FOG     WCI  27
IMPERIAL       CLOUDY    33  32  96 N13       29.82R WCI  24
LEXINGTON      LGT RAIN  37  35  93 N10       29.76F WCI  30
MCCOOK         CLOUDY    36  34  92 N13       29.78S WCI  27
$$

NEZ005>010-023>029-035>040-094-301400-
NORTH CENTRAL NEBRASKA

CITY           SKY/WX    TMP DP  RH WIND       PRES   REMARKS
VALENTINE      LGT RAIN  39  36  89 NE20G28   29.92S WCI  29
AINSWORTH      LGT SNOW  35  34  97 NE17      29.90S WCI  25
BROKEN BOW     LGT RAIN  38  36  92 N15       29.78R FOG     WCI  29
O`NEILL        RAIN      40  38  93 NE16      29.87S WCI  32
ORD            LGT RAIN  40  38  93 NE17      29.76F WCI  31
$$

NEZ041-046>049-061>064-073>077-083>087-301400-
SOUTH CENTRAL NEBRASKA

CITY           SKY/WX    TMP DP  RH WIND       PRES   REMARKS
GRAND ISLAND   LGT RAIN  42  40  92 NE12      29.74R FOG
AURORA         CLOUDY    43  42  99 NE13      29.72R
HASTINGS       LGT RAIN  42  41  96 N13       29.71S FOG
HOLDREGE       CLOUDY    40  39  96 N12       29.73F FOG     WCI  33
KEARNEY *      CLOUDY    41  39  93 N13       29.74S
YORK           CLOUDY    43  41  93 NE13      29.71F
$$

NEZ011>018-030>034-042>045-301400-
NORTHEAST NEBRASKA

CITY           SKY/WX    TMP DP  RH WIND       PRES   REMARKS
NORFOLK        RAIN      42  39  89 NE12      29.79R FOG
ALBION         RAIN      41  40  94 NE10      29.77F
BLAIR          LGT RAIN  44  43  95 NE17G24   29.72S
COLUMBUS *     CLOUDY    43  36  75 NE15      29.77R
FREMONT        RAIN      43  43  99 NE8       29.75R
TEKAMAH        RAIN      44  42  93 NE15      29.76S FOG
$$

NEZ050>053-065>068-078-088>093-301400-
SOUTHEAST NEBRASKA

CITY           SKY/WX    TMP DP  RH WIND       PRES   REMARKS
LINCOLN        CLOUDY    46  44  93 NE9       29.72S
OMAHA EPPLEY   LGT RAIN  46  43  89 E7        29.73S
BEATRICE       CLOUDY    46  46  97 NE7       29.66F
FALLS CITY     LGT RAIN  51  50  96 E8        29.66R FOG
NEBRASKA CITY  RAIN      47  47 100 E13       29.69R
$$

NEZ044-045-051>053-067-301400-
OMAHA AREA

CITY           SKY/WX    TMP DP  RH WIND       PRES   REMARKS
OMAHA EPPLEY   LGT RAIN  46  43  89 E7        29.73S
BLAIR          LGT RAIN  44  43  95 NE17G24   29.72S
FREMONT        RAIN      43  43  99 NE8       29.75R
OFFUTT AFB     RAIN      46  45  93 E13       29.70R FOG
WAHOO          RAIN      45  43  94 NE9       29.74R
$$




USA.gov is the U.S. government's official web portal to all federal, state and local government web resources and services.